| time (UTC) | temp C | wind direction | speed KPH | gust KPH | rain 1hr cm | rain 24hr cm | rain mn cm | humidity % | barometer mb |
| 20260505233049 | 28 | 0 | 1.6 | 8.0 | 0.00 | 0.03 | 0.00 | 75 | 1006.2 |
| 20260505232547 | 28 | 13 | 0.0 | 8.0 | 0.00 | 0.03 | 0.00 | 74 | 1006.2 |
| 20260505232047 | 28 | 17 | 1.6 | 8.0 | 0.00 | 0.03 | 0.00 | 75 | 1006.2 |
| 20260505231556 | 28 | 26 | 0.0 | 6.4 | 0.00 | 0.03 | 0.00 | 75 | 1006.3 |
| 20260505231048 | 28 | 26 | 0.0 | 6.4 | 0.00 | 0.03 | 0.00 | 74 | 1006.3 |
| 20260505230547 | 28 | 0 | 0.0 | 6.4 | 0.00 | 0.03 | 0.00 | 74 | 1006.2 |
| 20260505230054 | 28 | 26 | 0.0 | 8.0 | 0.00 | 0.03 | 0.00 | 74 | 1006.1 |
| 20260505225547 | 28 | 0 | 0.0 | 8.0 | 0.00 | 0.03 | 0.00 | 74 | 1006.0 |
| 20260505225047 | 28 | 19 | 0.0 | 6.4 | 0.00 | 0.03 | 0.00 | 74 | 1006.0 |
| 20260505224553 | 28 | 18 | 1.6 | 6.4 | 0.00 | 0.03 | 0.00 | 74 | 1006.1 |
| 20260505224045 | 28 | 26 | 1.6 | 6.4 | 0.00 | 0.03 | 0.00 | 74 | 1006.1 |
| 20260505223545 | 28 | 0 | 0.0 | 6.4 | 0.00 | 0.03 | 0.00 | 75 | 1005.9 |
| 20260505223051 | 28 | 24 | 1.6 | 6.4 | 0.00 | 0.03 | 0.00 | 75 | 1006.0 |
| 20260505222547 | 28 | 16 | 0.0 | 4.8 | 0.00 | 0.03 | 0.00 | 75 | 1006.0 |
| 20260505222047 | 28 | 0 | 0.0 | 4.8 | 0.00 | 0.03 | 0.00 | 75 | 1006.0 |
| 20260505221555 | 28 | 16 | 0.0 | 8.0 | 0.00 | 0.03 | 0.00 | 74 | 1006.0 |
| 20260505221046 | 28 | 16 | 1.6 | 9.7 | 0.00 | 0.03 | 0.00 | 74 | 1006.0 |
| 20260505220546 | 28 | 0 | 1.6 | 9.7 | 0.00 | 0.03 | 0.00 | 73 | 1006.1 |
| 20260505220105 | 28 | 12 | 1.6 | 11.3 | 0.00 | 0.03 | 0.00 | 73 | 1006.2 |
| 20260505215547 | 28 | 26 | 3.2 | 11.3 | 0.00 | 0.03 | 0.00 | 73 | 1006.2 |
| 20260505215047 | 28 | 16 | 3.2 | 11.3 | 0.00 | 0.03 | 0.00 | 72 | 1006.5 |
| 20260505214602 | 28 | 0 | 1.6 | 9.7 | 0.00 | 0.03 | 0.00 | 72 | 1006.6 |
| 20260505214046 | 28 | 25 | 1.6 | 11.3 | 0.00 | 0.03 | 0.00 | 72 | 1006.6 |
| 20260505213546 | 28 | 0 | 1.6 | 12.9 | 0.00 | 0.03 | 0.00 | 72 | 1006.6 |
| 20260505213101 | 28 | 37 | 0.0 | 12.9 | 0.00 | 0.03 | 0.00 | 73 | 1006.8 |
| 20260505212547 | 28 | 39 | 3.2 | 12.9 | 0.00 | 0.03 | 0.00 | 72 | 1006.8 |
| 20260505212045 | 28 | 26 | 1.6 | 11.3 | 0.00 | 0.03 | 0.00 | 72 | 1006.7 |
| 20260505211601 | 28 | 12 | 1.6 | 9.7 | 0.00 | 0.03 | 0.00 | 73 | 1006.7 |
| 20260505211047 | 28 | 37 | 1.6 | 9.7 | 0.00 | 0.03 | 0.00 | 73 | 1006.7 |
| 20260505210546 | 28 | 29 | 1.6 | 6.4 | 0.00 | 0.03 | 0.00 | 75 | 1006.8 |
| 20260505210053 | 28 | 0 | 1.6 | 6.4 | 0.00 | 0.03 | 0.00 | 75 | 1006.8 |
| 20260505205549 | 28 | 0 | 1.6 | 6.4 | 0.00 | 0.03 | 0.00 | 74 | 1006.9 |
| 20260505205047 | 28 | 0 | 1.6 | 9.7 | 0.00 | 0.03 | 0.00 | 75 | 1006.9 |
| 20260505204555 | 28 | 0 | 1.6 | 12.9 | 0.00 | 0.03 | 0.00 | 74 | 1006.9 |
| 20260505204047 | 28 | 28 | 1.6 | 12.9 | 0.00 | 0.03 | 0.00 | 76 | 1007.3 |
| 20260505203547 | 27 | 47 | 3.2 | 11.3 | 0.00 | 0.03 | 0.00 | 76 | 1007.5 |
| 20260505203054 | 27 | 33 | 0.0 | 8.0 | 0.00 | 0.03 | 0.00 | 76 | 1007.5 |
| 20260505202547 | 27 | 20 | 3.2 | 11.3 | 0.00 | 0.03 | 0.00 | 76 | 1007.6 |
| 20260505202046 | 27 | 23 | 1.6 | 12.9 | 0.00 | 0.03 | 0.00 | 76 | 1007.6 |
| 20260505201557 | 27 | 0 | 1.6 | 12.9 | 0.00 | 0.03 | 0.00 | 76 | 1007.7 |
| 20260505201047 | 27 | 27 | 1.6 | 9.7 | 0.00 | 0.03 | 0.00 | 77 | 1007.8 |
| 20260505200546 | 27 | 9 | 3.2 | 9.7 | 0.00 | 0.03 | 0.00 | 76 | 1007.8 |
| 20260505195545 | 27 | 12 | 3.2 | 12.9 | 0.00 | 0.03 | 0.00 | 77 | 1007.8 |
| 20260505195045 | 27 | 0 | 1.6 | 8.0 | 0.00 | 0.03 | 0.00 | 77 | 1008.0 |
| 20260505194553 | 27 | 0 | 0.0 | 9.7 | 0.00 | 0.03 | 0.00 | 79 | 1008.0 |
| 20260505194048 | 27 | 19 | 3.2 | 9.7 | 0.00 | 0.03 | 0.00 | 78 | 1008.1 |
| 20260505193545 | 27 | 19 | 0.0 | 6.4 | 0.00 | 0.03 | 0.00 | 78 | 1008.1 |
| 20260505193056 | 27 | 0 | 0.0 | 6.4 | 0.00 | 0.03 | 0.00 | 78 | 1008.1 |
| 20260505192547 | 27 | 18 | 1.6 | 8.0 | 0.00 | 0.03 | 0.00 | 79 | 1008.1 |
| 20260505192048 | 27 | 18 | 0.0 | 8.0 | 0.00 | 0.03 | 0.00 | 79 | 1008.1 |
| 20260505191556 | 27 | 24 | 1.6 | 6.4 | 0.00 | 0.03 | 0.00 | 80 | 1008.2 |
| 20260505191047 | 26 | 0 | 1.6 | 8.0 | 0.00 | 0.03 | 0.00 | 80 | 1008.2 |
| 20260505190550 | 26 | 23 | 0.0 | 9.7 | 0.00 | 0.03 | 0.00 | 80 | 1008.2 |
| 20260505190051 | 26 | 0 | 1.6 | 9.7 | 0.00 | 0.03 | 0.00 | 80 | 1008.3 |
| 20260505185546 | 26 | 18 | 1.6 | 9.7 | 0.00 | 0.03 | 0.00 | 80 | 1008.3 |
| 20260505185043 | 26 | 0 | 0.0 | 9.7 | 0.00 | 0.03 | 0.00 | 81 | 1008.4 |
| 20260505184558 | 26 | 53 | 0.0 | 8.0 | 0.00 | 0.03 | 0.00 | 82 | 1008.5 |
| 20260505184046 | 26 | 0 | 1.6 | 8.0 | 0.00 | 0.03 | 0.00 | 81 | 1008.6 |
| 20260505183545 | 26 | 0 | 1.6 | 8.0 | 0.00 | 0.03 | 0.00 | 82 | 1008.6 |
| 20260505183048 | 25 | 0 | 1.6 | 6.4 | 0.00 | 0.03 | 0.00 | 82 | 1008.8 |
| 20260505182545 | 25 | 0 | 0.0 | 8.0 | 0.00 | 0.03 | 0.00 | 83 | 1008.9 |
| 20260505182049 | 25 | 0 | 1.6 | 8.0 | 0.00 | 0.03 | 0.00 | 83 | 1009.0 |
| 20260505181551 | 25 | 0 | 3.2 | 8.0 | 0.00 | 0.03 | 0.00 | 84 | 1009.0 |
| 20260505181047 | 25 | 24 | 0.0 | 6.4 | 0.00 | 0.03 | 0.00 | 84 | 1008.9 |
| 20260505180548 | 25 | 24 | 1.6 | 6.4 | 0.00 | 0.03 | 0.00 | 84 | 1009.0 |
| 20260505180056 | 25 | 30 | 0.0 | 6.4 | 0.00 | 0.03 | 0.00 | 85 | 1009.1 |
| 20260505175547 | 24 | 30 | 3.2 | 6.4 | 0.00 | 0.03 | 0.00 | 85 | 1009.0 |
| 20260505175049 | 24 | 0 | 0.0 | 6.4 | 0.00 | 0.03 | 0.00 | 85 | 1009.3 |
| 20260505174607 | 24 | 19 | 3.2 | 6.4 | 0.00 | 0.03 | 0.00 | 85 | 1009.3 |
| 20260505174046 | 24 | 0 | 0.0 | 11.3 | 0.00 | 0.03 | 0.00 | 86 | 1009.4 |
| 20260505173546 | 24 | 0 | 1.6 | 11.3 | 0.00 | 0.03 | 0.00 | 85 | 1009.3 |
| 20260505173047 | 23 | 20 | 0.0 | 6.4 | 0.00 | 0.03 | 0.00 | 85 | 1009.4 |
| 20260505172545 | 23 | 22 | 0.0 | 6.4 | 0.00 | 0.03 | 0.00 | 86 | 1009.5 |
| 20260505172045 | 23 | 0 | 1.6 | 6.4 | 0.00 | 0.03 | 0.00 | 86 | 1009.5 |
| 20260505171549 | 23 | 26 | 1.6 | 4.8 | 0.00 | 0.03 | 0.00 | 86 | 1009.5 |
| 20260505171047 | 23 | 0 | 0.0 | 8.0 | 0.00 | 0.03 | 0.00 | 86 | 1009.6 |
| 20260505170546 | 23 | 26 | 0.0 | 8.0 | 0.00 | 0.03 | 0.00 | 87 | 1009.7 |
| 20260505170123 | 23 | 26 | 1.6 | 8.0 | 0.00 | 0.03 | 0.00 | 87 | 1009.6 |
| 20260505165547 | 23 | 0 | 1.6 | 8.0 | 0.00 | 0.03 | 0.00 | 87 | 1009.5 |
| 20260505165047 | 23 | 0 | 1.6 | 6.4 | 0.00 | 0.03 | 0.00 | 87 | 1009.5 |
| 20260505164551 | 23 | 0 | 0.0 | 3.2 | 0.00 | 0.03 | 0.00 | 88 | 1009.5 |
| 20260505164046 | 23 | 0 | 0.0 | 3.2 | 0.00 | 0.03 | 0.00 | 88 | 1009.6 |
| 20260505163546 | 23 | 0 | 0.0 | 3.2 | 0.00 | 0.03 | 0.00 | 88 | 1009.5 |
| 20260505163048 | 23 | 0 | 0.0 | 6.4 | 0.00 | 0.03 | 0.00 | 88 | 1009.4 |
| 20260505162545 | 22 | 42 | 1.6 | 4.8 | 0.00 | 0.03 | 0.00 | 88 | 1009.6 |
| 20260505162045 | 22 | 0 | 0.0 | 4.8 | 0.00 | 0.03 | 0.00 | 89 | 1009.6 |
| 20260505161554 | 22 | 0 | 0.0 | 4.8 | 0.00 | 0.03 | 0.00 | 89 | 1009.6 |
| 20260505161046 | 22 | 31 | 0.0 | 4.8 | 0.00 | 0.03 | 0.00 | 89 | 1009.7 |
| 20260505160549 | 22 | 35 | 0.0 | 6.4 | 0.00 | 0.03 | 0.00 | 89 | 1009.6 |
| 20260505153057 | 22 | 0 | 0.0 | 6.4 | 0.00 | 0.03 | 0.00 | 90 | 1009.8 |
| 20260505152548 | 22 | 33 | 0.0 | 6.4 | 0.00 | 0.03 | 0.00 | 90 | 1009.7 |
| 20260505152046 | 22 | 0 | 0.0 | 6.4 | 0.00 | 0.03 | 0.00 | 90 | 1009.7 |
| 20260505151551 | 22 | 33 | 0.0 | 3.2 | 0.00 | 0.03 | 0.00 | 90 | 1009.8 |
| 20260505151045 | 22 | 0 | 0.0 | 6.4 | 0.00 | 0.03 | 0.00 | 90 | 1009.5 |
| 20260505150546 | 22 | 0 | 0.0 | 6.4 | 0.00 | 0.03 | 0.00 | 90 | 1009.4 |
| 20260505140546 | 21 | 0 | 1.6 | 8.0 | 0.00 | 0.03 | 0.00 | 90 | 1009.2 |
| 20260505130112 | 21 | 0 | 0.0 | 6.4 | 0.00 | 0.03 | 0.00 | 91 | 1008.7 |
| 20260505124607 | 21 | 43 | 0.0 | 4.8 | 0.00 | 0.03 | 0.00 | 91 | 1008.5 |
| 20260505124048 | 21 | 0 | 0.0 | 4.8 | 0.00 | 0.03 | 0.00 | 91 | 1008.4 |
| 20260505123545 | 21 | 0 | 0.0 | 4.8 | 0.00 | 0.03 | 0.00 | 91 | 1008.4 |
| 20260505123116 | 21 | 46 | 0.0 | 4.8 | 0.00 | 0.03 | 0.00 | 90 | 1008.4 |
| 20260505122545 | 21 | 0 | 1.6 | 4.8 | 0.00 | 0.03 | 0.00 | 90 | 1008.3 |
| 20260505122046 | 21 | 29 | 0.0 | 6.4 | 0.00 | 0.03 | 0.00 | 90 | 1008.2 |
| 20260505121552 | 21 | 0 | 0.0 | 6.4 | 0.00 | 0.03 | 0.00 | 90 | 1008.1 |
| 20260505121047 | 21 | 29 | 0.0 | 6.4 | 0.00 | 0.03 | 0.00 | 90 | 1008.0 |
| 20260505120547 | 21 | 22 | 0.0 | 8.0 | 0.00 | 0.03 | 0.00 | 90 | 1008.0 |
| 20260505120057 | 21 | 24 | 0.0 | 8.0 | 0.00 | 0.03 | 0.00 | 90 | 1008.0 |
| 20260505115546 | 21 | 19 | 1.6 | 8.0 | 0.00 | 0.03 | 0.00 | 90 | 1007.9 |
| 20260505115048 | 21 | 24 | 0.0 | 4.8 | 0.00 | 0.03 | 0.00 | 90 | 1007.9 |
| 20260505114612 | 21 | 24 | 0.0 | 6.4 | 0.00 | 0.03 | 0.00 | 90 | 1008.0 |
| 20260505114048 | 21 | 0 | 1.6 | 8.0 | 0.00 | 0.03 | 0.00 | 90 | 1007.9 |
| 20260505113548 | 21 | 0 | 0.0 | 8.0 | 0.00 | 0.03 | 0.00 | 90 | 1007.9 |
| 20260505113058 | 21 | 22 | 1.6 | 8.0 | 0.00 | 0.03 | 0.00 | 89 | 1007.8 |
| 20260505112545 | 21 | 18 | 1.6 | 8.0 | 0.00 | 0.03 | 0.00 | 89 | 1008.0 |
| 20260505112048 | 21 | 22 | 1.6 | 6.4 | 0.00 | 0.03 | 0.00 | 89 | 1007.9 |
| 20260505111605 | 21 | 28 | 1.6 | 4.8 | 0.00 | 0.03 | 0.00 | 89 | 1007.9 |
| 20260505111049 | 21 | 0 | 0.0 | 8.0 | 0.00 | 0.03 | 0.00 | 89 | 1007.9 |
| 20260505110546 | 21 | 0 | 0.0 | 8.0 | 0.00 | 0.03 | 0.00 | 89 | 1008.1 |
| 20260505102045 | 21 | 23 | 1.6 | 6.4 | 0.00 | 0.03 | 0.00 | 89 | 1008.2 |
| 20260505101554 | 21 | 22 | 0.0 | 3.2 | 0.00 | 0.03 | 0.00 | 89 | 1008.1 |
| 20260505101048 | 21 | 0 | 0.0 | 3.2 | 0.00 | 0.03 | 0.00 | 89 | 1008.2 |
| 20260505100545 | 21 | 0 | 0.0 | 3.2 | 0.00 | 0.03 | 0.00 | 89 | 1008.3 |
| 20260505100052 | 21 | 0 | 0.0 | 6.4 | 0.00 | 0.03 | 0.00 | 88 | 1008.3 |
| 20260505095544 | 21 | 22 | 0.0 | 6.4 | 0.00 | 0.05 | 0.00 | 88 | 1008.1 |
| 20260505095045 | 21 | 0 | 0.0 | 4.8 | 0.00 | 0.05 | 0.00 | 88 | 1008.1 |
| 20260505094552 | 21 | 0 | 0.0 | 8.0 | 0.00 | 0.05 | 0.00 | 88 | 1008.1 |
| 20260505094045 | 21 | 22 | 0.0 | 11.3 | 0.00 | 0.05 | 0.00 | 88 | 1008.0 |
| 20260505093546 | 21 | 0 | 1.6 | 11.3 | 0.00 | 0.05 | 0.00 | 88 | 1008.3 |
| 20260505093054 | 21 | 35 | 0.0 | 6.4 | 0.00 | 0.05 | 0.00 | 88 | 1008.2 |
| 20260505092546 | 21 | 0 | 0.0 | 6.4 | 0.00 | 0.05 | 0.00 | 88 | 1008.3 |
| 20260505092046 | 21 | 0 | 0.0 | 9.7 | 0.00 | 0.05 | 0.00 | 88 | 1008.3 |
| 20260505091551 | 21 | 12 | 1.6 | 9.7 | 0.00 | 0.05 | 0.00 | 88 | 1008.3 |
| 20260505091047 | 21 | 0 | 1.6 | 9.7 | 0.00 | 0.05 | 0.00 | 88 | 1008.2 |
| 20260505090545 | 21 | 0 | 0.0 | 8.0 | 0.00 | 0.05 | 0.00 | 87 | 1008.3 |
| 20260505090058 | 21 | 25 | 0.0 | 8.0 | 0.00 | 0.05 | 0.00 | 87 | 1008.5 |
| 20260505085545 | 21 | 0 | 0.0 | 8.0 | 0.00 | 0.05 | 0.00 | 87 | 1008.3 |
| 20260505085045 | 21 | 0 | 0.0 | 8.0 | 0.00 | 0.05 | 0.00 | 87 | 1008.5 |
| 20260505084554 | 21 | 0 | 0.0 | 8.0 | 0.00 | 0.05 | 0.00 | 87 | 1008.5 |
| 20260505084045 | 21 | 0 | 1.6 | 12.9 | 0.00 | 0.05 | 0.00 | 87 | 1008.3 |
| 20260505083545 | 21 | 0 | 1.6 | 12.9 | 0.00 | 0.05 | 0.00 | 87 | 1008.4 |
| 20260505083101 | 21 | 22 | 1.6 | 11.3 | 0.00 | 0.05 | 0.00 | 87 | 1008.5 |
| 20260505082545 | 21 | 53 | 1.6 | 11.3 | 0.00 | 0.05 | 0.00 | 88 | 1008.6 |
| 20260505082046 | 21 | 22 | 1.6 | 11.3 | 0.00 | 0.05 | 0.00 | 88 | 1008.8 |
| 20260505081555 | 21 | 0 | 0.0 | 11.3 | 0.00 | 0.05 | 0.00 | 88 | 1008.9 |
| 20260505081046 | 21 | 53 | 1.6 | 9.7 | 0.00 | 0.05 | 0.00 | 88 | 1008.8 |
| 20260505080546 | 21 | 45 | 1.6 | 9.7 | 0.00 | 0.05 | 0.00 | 87 | 1008.9 |
| 20260505080050 | 21 | 47 | 1.6 | 8.0 | 0.00 | 0.05 | 0.00 | 87 | 1008.9 |
| 20260505075545 | 21 | 0 | 1.6 | 14.5 | 0.00 | 0.05 | 0.00 | 87 | 1009.0 |
| 20260505075045 | 21 | 15 | 1.6 | 14.5 | 0.00 | 0.05 | 0.00 | 87 | 1009.0 |
| 20260505074549 | 21 | 47 | 1.6 | 11.3 | 0.00 | 0.05 | 0.00 | 87 | 1009.0 |
| 20260505074045 | 21 | 26 | 1.6 | 11.3 | 0.00 | 0.05 | 0.00 | 87 | 1009.1 |
| 20260505073544 | 21 | 21 | 1.6 | 8.0 | 0.00 | 0.05 | 0.00 | 87 | 1009.1 |
| 20260505073056 | 21 | 24 | 1.6 | 9.7 | 0.00 | 0.05 | 0.00 | 87 | 1009.1 |
| 20260505072544 | 21 | 30 | 1.6 | 9.7 | 0.00 | 0.05 | 0.00 | 86 | 1009.2 |
| 20260505072045 | 21 | 53 | 0.0 | 9.7 | 0.00 | 0.05 | 0.00 | 87 | 1009.3 |
| 20260505071557 | 21 | 12 | 0.0 | 9.7 | 0.00 | 0.05 | 0.00 | 86 | 1009.3 |
| 20260505071045 | 21 | 16 | 1.6 | 8.0 | 0.00 | 0.05 | 0.00 | 86 | 1009.3 |
| 20260505070548 | 21 | 35 | 1.6 | 8.0 | 0.00 | 0.05 | 0.00 | 86 | 1009.4 |
| 20260505070055 | 21 | 0 | 1.6 | 9.7 | 0.00 | 0.05 | 0.00 | 86 | 1009.4 |
| 20260505065545 | 21 | 19 | 1.6 | 11.3 | 0.00 | 0.05 | 0.00 | 86 | 1009.5 |
| 20260505065045 | 21 | 20 | 3.2 | 11.3 | 0.00 | 0.05 | 0.00 | 86 | 1009.6 |
| 20260505064601 | 21 | 22 | 1.6 | 11.3 | 0.00 | 0.05 | 0.00 | 86 | 1009.6 |
| 20260505064045 | 21 | 20 | 1.6 | 11.3 | 0.00 | 0.05 | 0.00 | 86 | 1009.7 |
| 20260505063545 | 21 | 36 | 1.6 | 8.0 | 0.00 | 0.05 | 0.00 | 86 | 1009.7 |
| 20260505063056 | 21 | 30 | 1.6 | 14.5 | 0.00 | 0.05 | 0.00 | 86 | 1009.8 |
| 20260505062545 | 21 | 28 | 3.2 | 14.5 | 0.00 | 0.05 | 0.00 | 86 | 1009.8 |
| 20260505062045 | 21 | 32 | 0.0 | 14.5 | 0.00 | 0.05 | 0.00 | 86 | 1009.9 |
| 20260505061607 | 21 | 13 | 3.2 | 14.5 | 0.00 | 0.05 | 0.00 | 86 | 1010.0 |
| 20260505061044 | 22 | 39 | 1.6 | 9.7 | 0.00 | 0.05 | 0.00 | 86 | 1009.9 |
| 20260505060545 | 22 | 23 | 1.6 | 9.7 | 0.00 | 0.05 | 0.00 | 86 | 1010.0 |
| 20260505060058 | 22 | 12 | 1.6 | 11.3 | 0.00 | 0.05 | 0.00 | 86 | 1010.0 |
| 20260505055545 | 22 | 39 | 1.6 | 11.3 | 0.00 | 0.05 | 0.00 | 86 | 1010.0 |
| 20260505055049 | 22 | 15 | 1.6 | 11.3 | 0.00 | 0.05 | 0.00 | 85 | 1010.0 |
| 20260505054601 | 22 | 9 | 1.6 | 12.9 | 0.00 | 0.05 | 0.00 | 85 | 1009.9 |
| 20260505054045 | 22 | 20 | 1.6 | 12.9 | 0.00 | 0.05 | 0.00 | 85 | 1009.9 |
| 20260505053545 | 22 | 21 | 4.8 | 12.9 | 0.00 | 0.05 | 0.00 | 85 | 1009.9 |
| 20260505053109 | 22 | 17 | 0.0 | 9.7 | 0.00 | 0.05 | 0.00 | 85 | 1010.0 |
| 20260505052545 | 22 | 14 | 1.6 | 11.3 | 0.00 | 0.05 | 0.00 | 85 | 1009.9 |
| 20260505052045 | 22 | 0 | 1.6 | 11.3 | 0.00 | 0.05 | 0.00 | 85 | 1009.9 |
| 20260505051552 | 22 | 12 | 3.2 | 9.7 | 0.00 | 0.05 | 0.00 | 85 | 1009.9 |
| 20260505051045 | 22 | 20 | 1.6 | 9.7 | 0.00 | 0.05 | 0.00 | 85 | 1009.9 |
| 20260505050544 | 22 | 0 | 3.2 | 11.3 | 0.00 | 0.05 | 0.00 | 85 | 1009.8 |
| 20260505041611 | 22 | 31 | 0.0 | 9.7 | 0.00 | 0.05 | 0.05 | 83 | 1009.8 |
| 20260505041045 | 22 | 0 | 3.2 | 12.9 | 0.00 | 0.05 | 0.05 | 83 | 1009.8 |
| 20260505040546 | 22 | 45 | 1.6 | 12.9 | 0.00 | 0.05 | 0.05 | 83 | 1009.9 |
| 20260505040056 | 23 | 22 | 3.2 | 8.0 | 0.00 | 0.05 | 0.05 | 82 | 1009.8 |
| 20260505035545 | 23 | 0 | 1.6 | 8.0 | 0.00 | 0.05 | 0.05 | 82 | 1010.0 |
| 20260505035050 | 23 | 0 | 3.2 | 9.7 | 0.00 | 0.05 | 0.05 | 82 | 1009.9 |
| 20260505034558 | 23 | 24 | 1.6 | 9.7 | 0.00 | 0.05 | 0.05 | 81 | 1009.9 |
| 20260505034047 | 23 | 0 | 1.6 | 9.7 | 0.00 | 0.05 | 0.05 | 81 | 1009.8 |
| 20260505033545 | 23 | 39 | 1.6 | 12.9 | 0.00 | 0.05 | 0.05 | 81 | 1009.7 |
| 20260505033053 | 23 | 25 | 1.6 | 12.9 | 0.00 | 0.05 | 0.05 | 81 | 1009.9 |
| 20260505032548 | 23 | 16 | 1.6 | 11.3 | 0.00 | 0.05 | 0.05 | 81 | 1009.8 |
| 20260505032044 | 23 | 27 | 0.0 | 6.4 | 0.00 | 0.05 | 0.05 | 81 | 1009.9 |
| 20260505031602 | 23 | 0 | 0.0 | 6.4 | 0.00 | 0.05 | 0.05 | 80 | 1009.8 |
| 20260505031048 | 23 | 102 | 1.6 | 6.4 | 0.00 | 0.05 | 0.05 | 80 | 1009.9 |
| 20260505030548 | 23 | 9 | 0.0 | 6.4 | 0.00 | 0.05 | 0.05 | 80 | 1009.8 |
| 20260505030048 | 23 | 0 | 1.6 | 6.4 | 0.00 | 0.05 | 0.05 | 79 | 1009.8 |
| 20260505025545 | 23 | 16 | 1.6 | 9.7 | 0.00 | 0.05 | 0.05 | 79 | 1009.8 |
| 20260505025047 | 23 | 0 | 1.6 | 9.7 | 0.00 | 0.05 | 0.05 | 79 | 1009.8 |
| 20260505024549 | 23 | 0 | 0.0 | 8.0 | 0.00 | 0.05 | 0.05 | 79 | 1009.7 |
| 20260505024045 | 23 | 0 | 0.0 | 8.0 | 0.00 | 0.05 | 0.05 | 78 | 1009.8 |
| 20260505023545 | 24 | 18 | 1.6 | 8.0 | 0.00 | 0.05 | 0.05 | 78 | 1009.8 |
| 20260505023057 | 24 | 18 | 1.6 | 9.7 | 0.00 | 0.05 | 0.05 | 78 | 1009.7 |
| 20260505022545 | 24 | 0 | 3.2 | 9.7 | 0.00 | 0.05 | 0.05 | 78 | 1009.7 |
| 20260505022045 | 24 | 19 | 0.0 | 4.8 | 0.00 | 0.05 | 0.05 | 78 | 1009.6 |
| 20260505021555 | 24 | 0 | 0.0 | 4.8 | 0.00 | 0.05 | 0.05 | 77 | 1009.6 |
| 20260505021044 | 24 | 0 | 0.0 | 6.4 | 0.00 | 0.05 | 0.05 | 77 | 1009.7 |
| 20260505020545 | 24 | 24 | 0.0 | 6.4 | 0.00 | 0.05 | 0.05 | 76 | 1009.6 |
| 20260505020049 | 24 | 12 | 0.0 | 6.4 | 0.00 | 0.05 | 0.05 | 76 | 1009.5 |
| 20260505015548 | 25 | 12 | 1.6 | 6.4 | 0.00 | 0.05 | 0.05 | 75 | 1009.5 |
| 20260505015046 | 25 | 0 | 0.0 | 9.7 | 0.00 | 0.05 | 0.05 | 75 | 1009.6 |
| 20260505014553 | 25 | 12 | 0.0 | 11.3 | 0.00 | 0.05 | 0.05 | 75 | 1009.4 |
| 20260505014046 | 25 | 6 | 3.2 | 11.3 | 0.00 | 0.05 | 0.05 | 74 | 1009.4 |
| 20260505013545 | 25 | 0 | 0.0 | 8.0 | 0.00 | 0.05 | 0.05 | 73 | 1009.5 |
| 20260505013047 | 25 | 0 | 1.6 | 8.0 | 0.00 | 0.05 | 0.05 | 73 | 1009.4 |
| 20260505012545 | 25 | 0 | 0.0 | 8.0 | 0.00 | 0.05 | 0.05 | 72 | 1009.3 |
| 20260505012048 | 25 | 0 | 0.0 | 8.0 | 0.00 | 0.05 | 0.05 | 71 | 1009.4 |
| 20260505011549 | 25 | 28 | 1.6 | 8.0 | 0.00 | 0.05 | 0.05 | 71 | 1009.3 |
| 20260505011048 | 25 | 20 | 0.0 | 6.4 | 0.00 | 0.05 | 0.05 | 70 | 1009.2 |
| 20260505010545 | 25 | 22 | 0.0 | 6.4 | 0.00 | 0.05 | 0.05 | 69 | 1009.2 |
| 20260505010052 | 26 | 0 | 0.0 | 8.0 | 0.00 | 0.05 | 0.05 | 69 | 1009.3 |
| 20260505005548 | 26 | 21 | 1.6 | 12.9 | 0.00 | 0.05 | 0.05 | 69 | 1009.2 |
| 20260505005048 | 26 | 29 | 1.6 | 12.9 | 0.00 | 0.05 | 0.05 | 68 | 1009.2 |
| 20260505004549 | 26 | 16 | 3.2 | 9.7 | 0.00 | 0.05 | 0.05 | 68 | 1009.3 |
| 20260505004047 | 26 | 11 | 1.6 | 9.7 | 0.00 | 0.05 | 0.05 | 68 | 1009.2 |
| 20260505003547 | 26 | 0 | 1.6 | 9.7 | 0.00 | 0.05 | 0.05 | 68 | 1009.1 |
| 20260505003055 | 26 | 18 | 1.6 | 12.9 | 0.00 | 0.05 | 0.05 | 67 | 1009.1 |
| 20260505002550 | 26 | 20 | 1.6 | 12.9 | 0.00 | 0.05 | 0.05 | 67 | 1009.0 |
| 20260505002051 | 26 | 17 | 3.2 | 16.1 | 0.00 | 0.05 | 0.05 | 67 | 1008.8 |
| 20260505001554 | 26 | 34 | 1.6 | 16.1 | 0.00 | 0.05 | 0.05 | 67 | 1008.9 |
| 20260505001048 | 26 | 0 | 3.2 | 9.7 | 0.00 | 0.05 | 0.05 | 66 | 1009.0 |
| 20260505000547 | 26 | 25 | 3.2 | 11.3 | 0.03 | 0.05 | 0.05 | 66 | 1009.0 |
| 20260505000058 | 26 | 29 | 1.6 | 11.3 | 0.03 | 0.05 | 0.05 | 66 | 1009.2 |
| 20260504235548 | 26 | 0 | 1.6 | 11.3 | 0.03 | 0.05 | 0.05 | 65 | 1009.3 |
| 20260504235048 | 26 | 35 | 0.0 | 11.3 | 0.03 | 0.05 | 0.05 | 65 | 1009.3 |
| 20260504234557 | 26 | 17 | 1.6 | 6.4 | 0.03 | 0.05 | 0.05 | 65 | 1009.4 |
| 20260504234048 | 26 | 0 | 0.0 | 11.3 | 0.03 | 0.05 | 0.05 | 65 | 1009.4 |
| 20260504233548 | 26 | 0 | 3.2 | 12.9 | 0.03 | 0.05 | 0.05 | 65 | 1009.5 |